TimeEST,TemperatureF,Dew PointF,Humidity,Sea Level PressureIn,VisibilityMPH,Wind Direction,Wind SpeedMPH,Gust SpeedMPH,PrecipitationIn,Events,Conditions,WindDirDegrees,DateUTC
12:15 AM,54.0,53.2,97,30.39,2.0,North,3.5,-,N/A,,Overcast,10,2013-11-22 05:15:00
12:35 AM,53.8,53.1,97,30.38,1.5,Calm,Calm,-,N/A,,Overcast,0,2013-11-22 05:35:00
12:55 AM,53.8,53.1,97,30.38,1.0,Calm,Calm,-,N/A,,Overcast,0,2013-11-22 05:55:00
1:15 AM,54.0,53.2,97,30.38,1.0,Calm,Calm,-,N/A,,Overcast,0,2013-11-22 06:15:00
1:35 AM,54.0,53.2,97,30.37,0.5,Calm,Calm,-,N/A,Fog,Fog,0,2013-11-22 06:35:00
1:55 AM,53.8,53.1,97,30.37,0.5,Calm,Calm,-,N/A,Fog,Fog,0,2013-11-22 06:55:00
2:15 AM,53.8,53.1,97,30.37,0.2,Calm,Calm,-,N/A,Fog,Fog,0,2013-11-22 07:15:00
2:35 AM,53.8,53.1,97,30.37,0.2,Calm,Calm,-,N/A,Fog,Fog,0,2013-11-22 07:35:00
2:55 AM,53.8,53.1,97,30.37,0.2,Calm,Calm,-,N/A,Fog,Fog,0,2013-11-22 07:55:00
3:15 AM,53.6,52.9,97,30.36,0.2,Calm,Calm,-,N/A,Fog,Fog,0,2013-11-22 08:15:00
3:35 AM,53.6,52.7,97,30.36,0.2,Calm,Calm,-,N/A,Fog,Fog,0,2013-11-22 08:35:00
3:55 AM,53.4,52.7,97,30.36,0.5,Calm,Calm,-,N/A,Fog,Fog,0,2013-11-22 08:55:00
4:15 AM,53.6,52.7,97,30.36,0.5,Calm,Calm,-,N/A,Fog,Fog,0,2013-11-22 09:15:00
4:35 AM,53.4,52.7,97,30.36,0.8,Calm,Calm,-,N/A,,Overcast,0,2013-11-22 09:35:00
4:55 AM,53.2,52.5,97,30.36,0.8,Calm,Calm,-,N/A,,Overcast,0,2013-11-22 09:55:00
5:15 AM,53.1,52.3,97,30.36,0.2,Calm,Calm,-,N/A,Fog,Fog,0,2013-11-22 10:15:00
5:35 AM,52.9,52.2,97,30.35,1.8,Calm,Calm,-,N/A,,Overcast,0,2013-11-22 10:35:00
5:55 AM,52.9,52.2,97,30.35,0.5,Calm,Calm,-,N/A,Fog,Fog,0,2013-11-22 10:55:00
6:15 AM,52.7,52.0,97,30.35,2.5,Calm,Calm,-,N/A,,Overcast,0,2013-11-22 11:15:00
6:35 AM,52.7,52.0,97,30.35,2.5,Calm,Calm,-,N/A,,Overcast,0,2013-11-22 11:35:00
6:55 AM,52.9,52.2,97,30.35,3.0,Calm,Calm,-,N/A,,Overcast,0,2013-11-22 11:55:00
7:15 AM,52.9,52.2,97,30.35,4.0,Calm,Calm,-,N/A,,Overcast,0,2013-11-22 12:15:00
7:35 AM,53.1,52.3,97,30.35,3.0,Calm,Calm,-,N/A,,Overcast,0,2013-11-22 12:35:00
7:55 AM,53.2,52.7,98,30.34,3.0,Calm,Calm,-,N/A,,Overcast,0,2013-11-22 12:55:00
8:15 AM,53.6,52.9,97,30.33,4.0,ESE,4.6,-,N/A,,Overcast,120,2013-11-22 13:15:00
8:35 AM,54.5,53.8,97,30.33,7.0,Calm,Calm,-,N/A,,Overcast,0,2013-11-22 13:35:00
8:55 AM,54.9,54.3,98,30.33,7.0,Calm,Calm,-,N/A,,Overcast,0,2013-11-22 13:55:00
9:15 AM,56.5,55.6,97,30.33,10.0,Calm,Calm,-,N/A,,Mostly Cloudy,0,2013-11-22 14:15:00
9:35 AM,57.4,56.7,97,30.32,10.0,SE,4.6,-,N/A,,Clear,130,2013-11-22 14:35:00
9:55 AM,59.2,58.3,97,30.32,10.0,SE,3.5,-,N/A,,Clear,140,2013-11-22 14:55:00
10:15 AM,60.3,59.0,96,30.32,7.0,SSE,3.5,-,N/A,,Clear,150,2013-11-22 15:15:00
10:35 AM,62.8,60.3,91,30.31,10.0,SE,4.6,-,N/A,,Clear,130,2013-11-22 15:35:00
10:55 AM,68.4,58.8,71,30.31,10.0,SW,5.8,-,N/A,,Clear,230,2013-11-22 15:55:00
11:15 AM,69.4,59.0,69,30.30,10.0,Calm,Calm,-,N/A,,Scattered Clouds,0,2013-11-22 16:15:00
11:35 AM,70.3,59.2,68,30.29,10.0,Calm,Calm,-,N/A,,Mostly Cloudy,0,2013-11-22 16:35:00
11:55 AM,71.8,58.5,63,30.28,10.0,SSW,4.6,-,N/A,,Scattered Clouds,210,2013-11-22 16:55:00
12:15 PM,72.5,58.5,61,30.26,10.0,SSW,4.6,-,N/A,,Scattered Clouds,210,2013-11-22 17:15:00
12:35 PM,73.0,58.1,59,30.25,10.0,WSW,9.2,-,N/A,,Scattered Clouds,240,2013-11-22 17:35:00
12:55 PM,73.2,57.7,58,30.24,10.0,South,5.8,-,N/A,,Scattered Clouds,190,2013-11-22 17:55:00
1:15 PM,73.6,57.9,58,30.24,10.0,SW,5.8,-,N/A,,Scattered Clouds,230,2013-11-22 18:15:00
1:35 PM,72.5,58.1,60,30.23,10.0,Calm,Calm,-,N/A,,Mostly Cloudy,0,2013-11-22 18:35:00
1:55 PM,73.4,58.1,59,30.22,10.0,SSW,3.5,-,N/A,,Overcast,210,2013-11-22 18:55:00
2:15 PM,72.5,58.3,61,30.22,10.0,SSW,3.5,-,N/A,,Overcast,210,2013-11-22 19:15:00
2:35 PM,72.0,58.1,62,30.21,10.0,SW,4.6,-,N/A,,Overcast,230,2013-11-22 19:35:00
2:55 PM,71.4,58.8,64,30.21,10.0,Calm,Calm,-,N/A,,Overcast,0,2013-11-22 19:55:00
3:15 PM,70.7,59.0,66,30.21,10.0,SW,3.5,-,N/A,,Overcast,220,2013-11-22 20:15:00
3:35 PM,70.5,60.1,69,30.20,10.0,Calm,Calm,-,N/A,,Overcast,0,2013-11-22 20:35:00
3:55 PM,70.2,60.1,70,30.19,10.0,Calm,Calm,-,N/A,,Overcast,0,2013-11-22 20:55:00
4:15 PM,70.2,60.3,71,30.18,10.0,Calm,Calm,-,N/A,,Mostly Cloudy,0,2013-11-22 21:15:00
4:35 PM,69.6,59.9,71,30.18,10.0,Calm,Calm,-,N/A,,Scattered Clouds,0,2013-11-22 21:35:00
4:55 PM,67.8,60.1,76,30.17,10.0,Calm,Calm,-,N/A,,Clear,0,2013-11-22 21:55:00
5:15 PM,65.8,60.3,82,30.17,7.0,Calm,Calm,-,N/A,,Scattered Clouds,0,2013-11-22 22:15:00
5:35 PM,66.0,60.1,81,30.18,10.0,Calm,Calm,-,N/A,,Scattered Clouds,0,2013-11-22 22:35:00
5:55 PM,65.5,60.3,83,30.18,10.0,Calm,Calm,-,N/A,,Scattered Clouds,0,2013-11-22 22:55:00
6:15 PM,64.8,60.6,86,30.17,10.0,Calm,Calm,-,N/A,,Scattered Clouds,0,2013-11-22 23:15:00
6:35 PM,63.9,60.3,88,30.17,10.0,Calm,Calm,-,N/A,,Scattered Clouds,0,2013-11-22 23:35:00
6:55 PM,63.5,60.3,89,30.16,10.0,Calm,Calm,-,N/A,,Clear,0,2013-11-22 23:55:00
7:15 PM,63.5,60.1,89,30.16,10.0,SW,3.5,-,N/A,,Clear,220,2013-11-23 00:15:00
7:35 PM,63.5,60.3,89,30.15,10.0,Calm,Calm,-,N/A,,Scattered Clouds,0,2013-11-23 00:35:00
7:55 PM,63.1,60.4,91,30.15,10.0,Calm,Calm,-,N/A,,Mostly Cloudy,0,2013-11-23 00:55:00
8:15 PM,63.5,60.8,91,30.15,10.0,Calm,Calm,-,N/A,,Overcast,0,2013-11-23 01:15:00
8:35 PM,63.5,60.8,91,30.14,10.0,Calm,Calm,-,N/A,,Overcast,0,2013-11-23 01:35:00
8:55 PM,63.7,61.0,91,30.14,10.0,SW,3.5,-,N/A,,Scattered Clouds,230,2013-11-23 01:55:00
9:15 PM,63.5,61.0,91,30.14,10.0,SW,3.5,-,N/A,,Mostly Cloudy,220,2013-11-23 02:15:00
9:35 PM,63.7,60.8,90,30.13,10.0,Calm,Calm,-,N/A,,Scattered Clouds,0,2013-11-23 02:35:00
9:55 PM,63.7,60.8,90,30.14,10.0,Calm,Calm,-,N/A,,Scattered Clouds,0,2013-11-23 02:55:00
10:15 PM,63.9,61.0,90,30.13,10.0,SW,4.6,-,N/A,,Overcast,220,2013-11-23 03:15:00
10:35 PM,63.9,61.0,90,30.13,10.0,Calm,Calm,-,N/A,,Overcast,0,2013-11-23 03:35:00
10:55 PM,63.7,61.0,91,30.12,10.0,SW,3.5,-,N/A,,Mostly Cloudy,220,2013-11-23 03:55:00
11:15 PM,63.5,60.8,91,30.12,10.0,Calm,Calm,-,N/A,,Mostly Cloudy,0,2013-11-23 04:15:00
11:35 PM,63.3,60.8,91,30.11,10.0,Calm,Calm,-,N/A,,Overcast,0,2013-11-23 04:35:00
11:55 PM,63.3,60.8,91,30.11,10.0,Calm,Calm,-,N/A,,Overcast,0,2013-11-23 04:55:00